User: anonymous   Login
Location: Bégole
(43.1574°N, 0.3291°E)
Time: 02:36:11
(UTC+00:00)
Language:

Cosmos 2227 - Orbit

View from above orbital plane
View from above orbital plane
View from above satellite
View from above satellite

Ground track
Ground track

The orbit data is extracted from the following two-line orbital elements,

1 22284U 92093A   23146.96925199 -.00000218  00000-0 -90656-4 0  9990
2 22284  70.9804   6.5156 0016707 138.5838 221.6553 14.13438002569211
Epoch (UTC): 26 May 2023 23:15:43
Eccentricity: 0.0016707
inclination: 70.9804°
perigee height: 835 km
apogee height: 860 km
right ascension of ascending node: 6.5156°
argument of perigee: 138.5838°
revolutions per day: 14.13438002
mean anomaly at epoch: 221.6553°
orbit number at epoch: 56921

The dashed part of the orbit path shows where the satellite is in the earth's shadow,  

DLR